Regional Weather Roundup
Issued by NWS Newport/Morehead, NC

Current Version | Previous Version | Graphics & Text | Print | Product List | Glossary On
Versions: 1 2 3 4 5 6 7 8 9 10 11 12 13 14 15 16 17 18 19 20 21 22 23 24 25 26 27 28 29 30 31 32 33 34 35 36 37 38 39 40 41 42 43 44 45 46 47 48 49 50
000
ASUS42 KMHX 230124
RWRMHX
WEATHER ROUNDUP FOR EASTERN NORTH CAROLINA
NATIONAL WEATHER SERVICE NEWPORT/MOREHEAD CITY NC
900 PM EDT FRI MAY 22 2015

NOTE: "FAIR" INDICATES FEW OR NO CLOUDS BELOW 12,000 FEET
WITH NO SIGNIFICANT WEATHER AND/OR OBSTRUCTIONS TO VISIBILITY

NCZ015>017-031-032-045>047-102-103-230200-
NORTH COAST

CITY           SKY/WX    TMP DP  RH WIND       PRES   REMARKS
EDENTON        CLEAR     60  53  78 CALM      30.23R
ELIZABETH CITY CLEAR     60  53  77 SW5       30.21R
KITTY HAWK     CLEAR     60  46  61 S3        30.21S
MANTEO         CLEAR     60  46  60 SE3       30.23S

$$

NCZ045>047-081-094-103-104-230200-
CENTRAL COAST

CITY           SKY/WX    TMP DP  RH WIND       PRES   REMARKS
FRISCO         PTCLDY    56  45  66 E5        30.23R
SWANQUARTER      N/A     63 N/A N/A E2        30.21R

$$

NCZ095-097-098-100-101-230200-
SOUTHERN COAST

CITY           SKY/WX    TMP DP  RH WIND       PRES   REMARKS
BEAUFORT       PTCLDY    64  55  72 SE3       30.23R
CEDAR ISLAND     N/A     66 N/A N/A E6        30.27S
JACKSONVILLE   PTCLDY    65  56  72 S5        30.22R
PINEY ISLAND   MIX PCPN N/A N/A N/A NE5       30.22R
WILMINGTON     PTCLDY    64  59  83 CALM      30.22R


$$

NCZ011>013-027>030-043-044-078>080-089-090>093-098-230200-
COASTAL PLAIN

CITY           SKY/WX    TMP DP  RH WIND       PRES   REMARKS
AHOSKIE        CLEAR     57  51  79 CALM      30.23R
CLINTON        CLEAR     61  54  77 CALM      30.25R
ELIZABETHTOWN  CLEAR     64  53  68 CALM      30.23R
GOLDSBORO      CLEAR     65  50  58 CALM      30.21R
GREENVILLE     PTCLDY    63  54  72 CALM      30.24R
HAVELOCK       PTCLDY    63  54  72 S5        30.24R
KENANSVILLE    CLEAR     58  54  86 CALM      30.25R
KINSTON        PTCLDY    61  55  82 CALM      30.24R
NEW BERN       MOCLDY    62  53  72 CALM      30.24R
RICHLANDS      PTCLDY    59  52  77 CALM      30.24R
ROCKY MOUNT    CLEAR     59  52  77 CALM      30.23R
WASHINGTON     PTCLDY   N/A N/A N/A CALM      30.24R
WHITEVILLE     CLEAR     63  54  71 CALM      30.23R

$$

AMZ130-135-150-152-154-156-158-170-250-252-270-ANZ085-086-088-633-658-670-230200-
MARINE OBSERVATIONS

STATION/POSITION TIME  TEMP    WIND        PRES    WAVE   SWELL
                       AIR SEA DIR/SP/G            HT/PER HT/PER
                 (UTC) (F)     (DEG/KT/KT) (MB)    (FT/S) (FT/S)
CHESAPEAKE LIGHT 0100   63     200/ 14/ 14 1023.2
64 E VA BEACH    0050   61 61  220/  8/ 10 1022.4    3/ 7   2/ 7
DUCK             0100   65 67  150/  8/  9 1022.1
2 E DUCK         0011      65                N/A     2/ 7
OREGON INLET     0100   61 69  150/  4/  6 1023.6
13E OREGON INLT  0100      62                N/A     3/ 7
HATTERAS CG      0100   64 73  110/  3/  5 1023.3
DIAMOND BUOY     0050   67 77   10/  8/ 10 1023.7    3/ 8   3/ 8
CAPE LOOKOUT     0100   67     100/  3/  4 1023.6
BEAUFORT LAB     0100   67 74  160/  4/  4 1022.9
27 SE WRIGHTSVLE 0100   67 77   90/  4/  6   N/A
5 SE WRIGHTSVLE  0008   70 76   90/  4/  8 1023.1
225 S CAPE HAT   0050   72 74   60/ 16/ 17 1021.4    5/ 8   3/ 8
41 SE CHARLESTON 0050   71 76   60/ 14/ 16 1022.2    3/ 6   2/ 6

$$


USA.gov is the U.S. government's official web portal to all federal, state and local government web resources and services.